HAZ844 KATL-ZGSZ

Flight info

Callsign HAZ844
Flight time N/A
Altitude 34000
Route ZELAN4 EMAHH DCT IMPEL DCT SMARS DCT MADDY DCT HENDR DCT APUNY DCT 50N096W 52N098W 54N100W DCT LITGO DCT KEVBO DCT 59N107W 60N109W 62N113W 64N118W 65N121W/N0493F360 66N125W 67N129W 68N134W 69N139W DCT ADREW NCA80 LISKI/K0911F360 L160 GONAM/K0917F380 L160 ADALU/K0870F260 A218 BANOT/K0911F380 T634 KUNON/K0896F400 T634 MAGIT/K0902S1220 R213 JMU G212 VYK W37 GUSIV/K0902S1250 W37 PEXID/K0900S1220 W37 OMBEB/K0895S1250 R473 NNX/K0902S1220 R473 NOLON W90 POU W7 SAREX SAREX3
Aircraft A359/H-SDE2E3GHIJ3J4J5LM1ORWXY/LB1D1

Departure

Time N/A
Airport Hartsfield Jackson Atlanta International Airport (KATL)

Arrival

Time 2026-04-24 23:15
Airport Shenzhen Bao'an International Airport (ZGSZ)
Time Latitude Longitude Altitude Speed Heading
2026-04-24 22:18 27.70374 113.67267 42102 ft 475 kts 193°
2026-04-24 22:19 27.63793 113.66685 42098 ft 474 kts 194°
2026-04-24 22:19 27.57172 113.66394 42101 ft 478 kts 190°
2026-04-24 22:20 27.50558 113.66341 42104 ft 478 kts 190°
2026-04-24 22:20 27.43900 113.66259 42104 ft 478 kts 191°
2026-04-24 22:21 27.37265 113.66126 42109 ft 477 kts 191°
2026-04-24 22:21 27.30634 113.65981 42110 ft 476 kts 191°
2026-04-24 22:22 27.24056 113.65835 42112 ft 476 kts 191°
2026-04-24 22:22 27.17388 113.66083 42113 ft 490 kts 181°
2026-04-24 22:23 27.10643 113.67760 42109 ft 499 kts 175°
2026-04-24 22:23 27.03958 113.69749 42117 ft 502 kts 174°
2026-04-24 22:24 26.97219 113.71792 42117 ft 501 kts 175°
2026-04-24 22:24 26.90485 113.73801 42117 ft 501 kts 175°
2026-04-24 22:25 26.83751 113.75787 42098 ft 499 kts 175°
2026-04-24 22:25 26.77066 113.77756 42120 ft 494 kts 175°
2026-04-24 22:26 26.70475 113.79719 42122 ft 494 kts 174°
2026-04-24 22:26 26.63850 113.81799 42122 ft 495 kts 174°
2026-04-24 22:27 26.57233 113.83893 42124 ft 495 kts 174°
2026-04-24 22:27 26.50600 113.85978 42130 ft 494 kts 174°
2026-04-24 22:28 26.44024 113.87972 42122 ft 492 kts 175°
2026-04-24 22:28 26.37394 113.89856 42132 ft 492 kts 176°
2026-04-24 22:29 26.27444 113.92689 42135 ft 492 kts 175°
2026-04-24 22:29 26.20817 113.94598 42124 ft 492 kts 175°
2026-04-24 22:30 26.14231 113.96497 42129 ft 492 kts 175°
2026-04-24 22:30 26.07602 113.98407 42122 ft 492 kts 175°
2026-04-24 22:31 26.00979 114.00313 42124 ft 492 kts 175°
2026-04-24 22:31 25.94345 114.02276 42111 ft 492 kts 175°
2026-04-24 22:32 25.87804 114.04231 42123 ft 489 kts 175°
2026-04-24 22:32 25.81237 114.06186 42124 ft 489 kts 175°
2026-04-24 22:33 25.74676 114.08131 42122 ft 488 kts 175°
2026-04-24 22:33 25.68136 114.10070 42118 ft 486 kts 175°
2026-04-24 22:34 25.61654 114.11987 42119 ft 484 kts 175°
2026-04-24 22:34 25.55159 114.13907 42113 ft 483 kts 175°
2026-04-24 22:35 25.48659 114.15826 42110 ft 483 kts 175°
2026-04-24 22:35 25.42163 114.17737 42110 ft 483 kts 175°
2026-04-24 22:36 25.35706 114.19637 42090 ft 483 kts 175°
2026-04-24 22:36 25.29216 114.21545 42109 ft 483 kts 175°
2026-04-24 22:37 25.22725 114.23451 42103 ft 482 kts 175°
2026-04-24 22:37 25.16241 114.25353 42106 ft 483 kts 175°
2026-04-24 22:38 25.09792 114.26642 42100 ft 463 kts 188°
2026-04-24 22:38 25.06615 114.26560 42065 ft 450 kts 196°
2026-04-24 22:38 25.03538 114.26071 42091 ft 445 kts 199°
2026-04-24 22:39 24.97468 114.24799 42108 ft 443 kts 201°
2026-04-24 22:39 24.91433 114.23432 42097 ft 443 kts 201°
2026-04-24 22:40 24.85428 114.22094 42099 ft 443 kts 201°
2026-04-24 22:40 24.79378 114.20770 42072 ft 443 kts 201°
2026-04-24 22:41 24.73354 114.19467 42096 ft 443 kts 201°
2026-04-24 22:41 24.67277 114.18149 42097 ft 443 kts 201°
2026-04-24 22:42 24.61218 114.16836 42095 ft 443 kts 201°
2026-04-24 22:42 24.55202 114.15534 42093 ft 443 kts 201°
2026-04-24 22:43 24.49177 114.14232 42091 ft 443 kts 201°
2026-04-24 22:43 24.43124 114.12925 42089 ft 441 kts 201°
2026-04-24 22:44 24.37142 114.11524 42092 ft 435 kts 206°
2026-04-24 22:44 24.31736 114.09000 42086 ft 419 kts 217°
2026-04-24 22:45 24.26721 114.05804 42095 ft 417 kts 219°
2026-04-24 22:45 24.21813 114.02381 42082 ft 417 kts 221°
2026-04-24 22:46 24.16955 113.98925 42087 ft 417 kts 221°
2026-04-24 22:46 24.12128 113.95513 42074 ft 415 kts 222°
2026-04-24 22:47 24.07692 113.91560 42075 ft 409 kts 228°
2026-04-24 22:47 24.03449 113.87420 42079 ft 408 kts 229°
2026-04-24 22:48 23.99274 113.83290 42037 ft 408 kts 229°
2026-04-24 22:48 23.97131 113.81172 41901 ft 408 kts 228°
2026-04-24 22:48 23.95024 113.79096 41657 ft 408 kts 228°
2026-04-24 22:49 23.92945 113.77053 41406 ft 409 kts 228°
2026-04-24 22:49 23.90826 113.74972 41158 ft 410 kts 228°
2026-04-24 22:49 23.88710 113.72895 40905 ft 411 kts 228°
2026-04-24 22:49 23.86646 113.70870 40669 ft 413 kts 229°
2026-04-24 22:50 23.84506 113.68768 40415 ft 414 kts 228°
2026-04-24 22:50 23.82352 113.66659 40161 ft 416 kts 228°
2026-04-24 22:50 23.80196 113.64551 39935 ft 417 kts 228°
2026-04-24 22:50 23.78029 113.62435 39691 ft 418 kts 228°
2026-04-24 22:51 23.75892 113.60348 39471 ft 419 kts 228°
2026-04-24 22:51 23.73722 113.58227 39184 ft 418 kts 228°
2026-04-24 22:51 23.71563 113.56121 38823 ft 414 kts 228°
2026-04-24 22:51 23.69416 113.54023 38176 ft 413 kts 228°
2026-04-24 22:52 23.67282 113.51940 37519 ft 411 kts 228°
2026-04-24 22:52 23.65163 113.49871 36852 ft 411 kts 228°
2026-04-24 22:52 23.63028 113.47787 36174 ft 411 kts 227°
2026-04-24 22:52 23.60960 113.45770 35508 ft 412 kts 227°
2026-04-24 22:53 23.58841 113.43703 34803 ft 414 kts 227°
2026-04-24 22:53 23.56675 113.41592 34005 ft 419 kts 226°
2026-04-24 22:53 23.54430 113.39586 33083 ft 432 kts 220°
2026-04-24 22:53 23.51766 113.37936 32124 ft 448 kts 209°
2026-04-24 22:54 23.48839 113.36648 31136 ft 459 kts 206°
2026-04-24 22:54 23.45860 113.35465 30141 ft 467 kts 204°
2026-04-24 22:54 23.42765 113.34300 29075 ft 473 kts 203°
2026-04-24 22:54 23.39670 113.33158 28270 ft 471 kts 203°
2026-04-24 22:55 23.36547 113.32006 27484 ft 470 kts 203°
2026-04-24 22:55 23.33502 113.30874 26727 ft 468 kts 204°
2026-04-24 22:55 23.30634 113.29798 26003 ft 467 kts 204°
2026-04-24 22:55 23.27566 113.28639 25226 ft 465 kts 204°
2026-04-24 22:56 23.24520 113.27484 24462 ft 465 kts 204°
2026-04-24 22:56 23.21721 113.26421 23745 ft 464 kts 204°
2026-04-24 22:56 23.18854 113.25329 22911 ft 462 kts 203°
2026-04-24 22:56 23.17016 113.24631 22431 ft 459 kts 202°
2026-04-24 22:57 23.14002 113.23488 21664 ft 455 kts 202°
2026-04-24 22:57 23.11014 113.22357 20902 ft 451 kts 202°
2026-04-24 22:57 23.08045 113.21277 20134 ft 449 kts 199°
2026-04-24 22:57 23.04955 113.20725 19346 ft 453 kts 185°
2026-04-24 22:58 23.01868 113.21064 18544 ft 458 kts 168°
2026-04-24 22:58 22.98871 113.22393 17696 ft 460 kts 151°
2026-04-24 22:58 22.96417 113.24529 16930 ft 458 kts 134°
2026-04-24 22:58 22.94615 113.27341 16200 ft 454 kts 116°
2026-04-24 22:59 22.93646 113.30548 15491 ft 446 kts 99°
2026-04-24 22:59 22.93185 113.33861 14788 ft 440 kts 98°
2026-04-24 22:59 22.91462 113.40146 13304 ft 424 kts 110°
2026-04-24 23:00 22.90365 113.42994 12313 ft 407 kts 114°
2026-04-24 23:00 22.86761 113.48361 10792 ft 390 kts 140°
2026-04-24 23:00 22.84548 113.49715 10667 ft 368 kts 163°
2026-04-24 23:00 22.82102 113.50033 10579 ft 344 kts 188°
2026-04-24 23:01 22.79846 113.49459 10480 ft 325 kts 199°
2026-04-24 23:01 22.77708 113.48870 10383 ft 310 kts 194°
2026-04-24 23:01 22.75624 113.48480 10277 ft 300 kts 190°
2026-04-24 23:01 22.73531 113.48372 10155 ft 305 kts 174°
2026-04-24 23:02 22.71480 113.48913 9969 ft 301 kts 163°
2026-04-24 23:02 22.69505 113.49657 9731 ft 304 kts 161°
2026-04-24 23:02 22.67558 113.50423 9399 ft 304 kts 161°
2026-04-24 23:02 22.65596 113.51202 9036 ft 302 kts 161°
2026-04-24 23:03 22.63630 113.51986 8673 ft 300 kts 161°
2026-04-24 23:03 22.61687 113.52762 8412 ft 293 kts 161°
2026-04-24 23:03 22.59820 113.53509 8284 ft 280 kts 161°
2026-04-24 23:03 22.58096 113.54199 8186 ft 268 kts 161°
2026-04-24 23:04 22.56386 113.54883 8066 ft 256 kts 161°
2026-04-24 23:04 22.54749 113.55540 7896 ft 249 kts 161°
2026-04-24 23:04 22.53263 113.56421 7635 ft 247 kts 139°
2026-04-24 23:04 22.52263 113.57872 7511 ft 237 kts 120°
2026-04-24 23:05 22.51488 113.59404 7383 ft 226 kts 118°
2026-04-24 23:05 22.50767 113.60866 7089 ft 218 kts 119°
2026-04-24 23:05 22.50049 113.62311 6699 ft 216 kts 119°
2026-04-24 23:05 22.49340 113.63729 6423 ft 215 kts 120°
2026-04-24 23:06 22.48657 113.65167 6232 ft 215 kts 114°
2026-04-24 23:06 22.48125 113.66668 6048 ft 213 kts 110°
2026-04-24 23:06 22.47648 113.68157 5882 ft 212 kts 109°
2026-04-24 23:06 22.47171 113.69657 5737 ft 211 kts 109°
2026-04-24 23:07 22.46700 113.71132 5631 ft 202 kts 110°
2026-04-24 23:07 22.46259 113.72510 5529 ft 188 kts 109°
2026-04-24 23:07 22.45833 113.73836 5187 ft 186 kts 109°
2026-04-24 23:07 22.45408 113.75155 4811 ft 185 kts 109°
2026-04-24 23:08 22.44988 113.76460 4478 ft 182 kts 109°
2026-04-24 23:08 22.44606 113.77714 4254 ft 182 kts 105°
2026-04-24 23:08 22.44515 113.79087 4090 ft 182 kts 80°
2026-04-24 23:08 22.44923 113.80349 3942 ft 179 kts 62°
2026-04-24 23:09 22.45491 113.81531 3859 ft 171 kts 60°
2026-04-24 23:09 22.46032 113.82621 3667 ft 161 kts 60°
2026-04-24 23:09 22.46557 113.83682 3344 ft 159 kts 60°
2026-04-24 23:09 22.47063 113.84716 3101 ft 151 kts 60°
2026-04-24 23:10 22.47534 113.85686 3026 ft 145 kts 61°
2026-04-24 23:10 22.47996 113.86640 2973 ft 141 kts 60°
2026-04-24 23:10 22.48485 113.87549 2913 ft 140 kts 53°
2026-04-24 23:10 22.49210 113.88208 2881 ft 138 kts 25°
2026-04-24 23:11 22.50143 113.88389 2736 ft 139 kts 355°
2026-04-24 23:11 22.51067 113.88118 2539 ft 137 kts 336°
2026-04-24 23:11 22.51919 113.87665 2337 ft 136 kts 335°
2026-04-24 23:11 22.52768 113.87209 2138 ft 136 kts 336°
2026-04-24 23:12 22.53604 113.86750 1991 ft 135 kts 336°
2026-04-24 23:12 22.54445 113.86288 1806 ft 134 kts 337°
2026-04-24 23:12 22.55277 113.85832 1633 ft 134 kts 337°
2026-04-24 23:12 22.56100 113.85380 1450 ft 133 kts 336°
2026-04-24 23:13 22.56929 113.84923 1278 ft 133 kts 335°
2026-04-24 23:13 22.57747 113.84473 1092 ft 132 kts 335°
2026-04-24 23:13 22.58518 113.84050 949 ft 130 kts 334°
2026-04-24 23:13 22.59331 113.83602 768 ft 132 kts 334°
2026-04-24 23:14 22.60132 113.83162 603 ft 131 kts 334°
2026-04-24 23:14 22.60938 113.82717 416 ft 130 kts 334°
2026-04-24 23:14 22.61743 113.82273 246 ft 130 kts 334°
2026-04-24 23:14 22.62539 113.81834 66 ft 129 kts 334°
2026-04-24 23:15 22.63304 113.81414 18 ft 115 kts 332°
2026-04-24 23:15 22.63789 113.81141 17 ft 38 kts 333°
2026-04-24 23:15 22.63967 113.80998 20 ft 33 kts 309°
2026-04-24 23:15 22.64062 113.80803 17 ft 31 kts 271°
2026-04-24 23:16 22.63979 113.80590 19 ft 31 kts 238°
2026-04-24 23:16 22.63908 113.80405 20 ft 15 kts 287°
2026-04-24 23:16 22.63971 113.80344 21 ft 13 kts 327°
2026-04-24 23:16 22.64053 113.80299 20 ft 14 kts 328°
2026-04-24 23:17 22.64145 113.80265 17 ft 7 kts 345°
2026-04-24 23:17 22.64147 113.80265 17 ft 0 kts 345°
2026-04-24 23:17 22.64149 113.80264 17 ft 1 kts 345°
2026-04-24 23:18 22.64163 113.80260 18 ft 0 kts 345°